This demonstration page uses our WeatherBlox Daily Observations layout. Learn more.

Left ArrowRight Arrow

36.17497, -115.13722

Hourly Observations for October 11, 2016

Temp ( °F °C ) Dew Point ( °F °C ) Humidity (%) Winds ( mph kmh ) Pressure ( in mb ) Visibility ( mi km ) Precip ( " mm )
12:53 am 00:53 Clear 75 23.9 35 1.7 23 23 Calm 29.89 1012 10 16.0934 0 0
1:53 am 01:53 Clear 73 22.8 36 2.2 26 26 SE 3 6 29.89 1012 10 16.0934 0 0
2:53 am 02:53 Clear 71 21.7 37 2.8 29 29 SSE 3 6 29.89 1012 10 16.0934 0 0
3:53 am 03:53 Clear 73 22.8 34 1.1 24 24 S 12 19 29.88 1012 10 16.0934 0 0
4:53 am 04:53 Clear 69 20.6 35 1.7 29 29 NNE 6 9 29.9 1013 10 16.0934 0 0
5:53 am 05:53 Clear 67 19.4 36 2.2 32 32 N 6 9 29.91 1013 10 16.0934 0 0
6:53 am 06:53 Sunny 66 18.9 37 2.8 34 34 WNW 3 6 29.93 1014 10 16.0934 0 0
7:53 am 07:53 Sunny 68 20 37 2.8 32 32 VRB 3 6 29.95 1014 10 16.0934 0 0
8:53 am 08:53 Sunny 74 23.3 36 2.2 25 25 ENE 5 7 29.96 1015 10 16.0934 0 0
9:53 am 09:53 Sunny 79 26.1 36 2.2 21 21 N 5 7 29.98 1015 10 16.0934 0 0
10:53 am 10:53 Sunny 80 26.7 35 1.7 20 20 SE 3 6 29.98 1015 10 16.0934 0 0
11:53 am 11:53 Sunny 83 28.3 33 0.6 17 17 SSW 7 11 29.96 1015 10 16.0934 0 0
12:53 pm 12:53 Sunny 85 29.4 29 -1.7 13 13 SSE 8 13 29.93 1014 10 16.0934 0 0
1:53 pm 13:53 Sunny 87 30.6 26 -3.3 11 11 E 3 6 29.9 1013 10 16.0934 0 0
2:53 pm 14:53 Sunny 89 31.7 24 -4.4 9 9 VRB 5 7 29.88 1012 10 16.0934 0 0
3:53 pm 15:53 Sunny 89 31.7 25 -3.9 10 10 Calm 29.87 1012 10 16.0934 0 0
4:53 pm 16:53 Sunny 89 31.7 25 -3.9 10 10 WSW 10 17 29.87 1011 10 16.0934 0 0
5:53 pm 17:53 Sunny 87 30.6 24 -4.4 10 10 SW 13 20 29.88 1012 10 16.0934 0 0
6:53 pm 18:53 Clear 84 28.9 24 -4.4 11 11 WSW 8 13 29.89 1012 10 16.0934 0 0
7:53 pm 19:53 Clear 81 27.2 25 -3.9 13 13 SSW 7 11 29.9 1013 10 16.0934 0 0
8:53 pm 20:53 Clear 78 25.6 24 -4.4 13 13 E 6 9 29.91 1013 10 16.0934 0 0
9:53 pm 21:53 Clear 74 23.3 28 -2.2 18 18 NW 3 6 29.93 1014 10 16.0934 0 0
10:53 pm 22:53 Clear 73 22.8 29 -1.7 19 19 WNW 5 7 29.94 1014 10 16.0934 0 0
11:53 pm 23:53 Clear 70 21.1 29 -1.7 22 22 NW 3 6 29.95 1014 10 16.0934 0 0

Powered by AerisWeather